Time,TemperatureF,DewpointF,PressureIn,WindDirection,WindDirectionDegrees,WindSpeedMPH,WindSpeedGustMPH,Humidity,HourlyPrecipIn,Conditions,Clouds,dailyrainin,SoftwareType,DateUTC
2013-06-17 00:12:00,41.0,-99.9,30.26,WNW,301,6.0,7.0,-999,-99.99,,,-99.99,,2013-06-17 08:12:00,
2013-06-17 00:22:00,42.0,-99.9,30.25,WNW,297,6.0,7.0,-999,-99.99,,,-99.99,,2013-06-17 08:22:00,
2013-06-17 00:34:00,42.0,-99.9,30.25,WNW,291,5.0,7.0,-999,-99.99,,,-99.99,,2013-06-17 08:34:00,
2013-06-17 00:43:00,42.0,-99.9,30.25,WNW,290,6.0,7.0,-999,-99.99,,,-99.99,,2013-06-17 08:43:00,
2013-06-17 01:02:00,41.0,-99.9,30.25,WNW,289,7.0,8.0,-999,-99.99,,,-99.99,,2013-06-17 09:02:00,
2013-06-17 01:34:00,40.0,-99.9,30.25,WNW,294,5.0,7.0,-999,-99.99,,,-99.99,,2013-06-17 09:34:00,
2013-06-17 02:22:00,41.0,-99.9,30.24,WNW,291,5.0,7.0,-999,-99.99,,,-99.99,,2013-06-17 10:22:00,
2013-06-17 03:02:00,52.0,-99.9,30.24,North,353,5.0,7.0,-999,-99.99,,,-99.99,,2013-06-17 11:02:00,
2013-06-17 03:12:00,52.0,-99.9,30.24,North,8,2.0,4.0,-999,-99.99,,,-99.99,,2013-06-17 11:12:00,
2013-06-17 03:23:00,54.0,-99.9,30.24,NNE,22,5.0,8.0,-999,-99.99,,,-99.99,,2013-06-17 11:23:00,
2013-06-17 03:33:00,55.0,-99.9,30.24,NNE,21,3.0,7.0,-999,-99.99,,,-99.99,,2013-06-17 11:33:00,
2013-06-17 03:43:00,55.0,-99.9,30.24,North,4,3.0,4.0,-999,-99.99,,,-99.99,,2013-06-17 11:43:00,
2013-06-17 03:53:00,53.0,-99.9,30.24,West,262,2.0,5.0,-999,-99.99,,,-99.99,,2013-06-17 11:53:00,
2013-06-17 04:02:00,44.0,-99.9,30.24,WNW,291,4.0,6.0,-999,-99.99,,,-99.99,,2013-06-17 12:02:00,
2013-06-17 04:12:00,41.0,-99.9,30.23,WNW,295,6.0,8.0,-999,-99.99,,,-99.99,,2013-06-17 12:12:00,
2013-06-17 04:23:00,40.0,-99.9,30.23,West,281,4.0,7.0,-999,-99.99,,,-99.99,,2013-06-17 12:23:00,
2013-06-17 05:02:00,40.0,-99.9,30.22,WNW,302,5.0,6.0,-999,-99.99,,,-99.99,,2013-06-17 13:02:00,
2013-06-17 05:12:00,40.0,-99.9,30.22,NNW,348,3.0,5.0,-999,-99.99,,,-99.99,,2013-06-17 13:12:00,
2013-06-17 05:22:00,48.0,-99.9,30.22,North,5,2.0,4.0,-999,-99.99,,,-99.99,,2013-06-17 13:22:00,
2013-06-17 05:33:00,51.0,-99.9,30.22,North,351,2.0,4.0,-999,-99.99,,,-99.99,,2013-06-17 13:33:00,
2013-06-17 05:43:00,50.0,-99.9,30.22,NNE,26,1.0,2.0,-999,-99.99,,,-99.99,,2013-06-17 13:43:00,
2013-06-17 05:53:00,50.0,-99.9,30.22,NNE,26,1.0,2.0,-999,-99.99,,,-99.99,,2013-06-17 13:53:00,
2013-06-17 06:02:00,46.0,-99.9,30.22,SSW,196,2.0,4.0,-999,-99.99,,,-99.99,,2013-06-17 14:02:00,
2013-06-17 06:22:00,47.0,-99.9,30.21,NW,323,1.0,2.0,-999,-99.99,,,-99.99,,2013-06-17 14:22:00,
2013-06-17 06:44:00,41.0,-99.9,30.21,WNW,293,5.0,6.0,-999,-99.99,,,-99.99,,2013-06-17 14:44:00,
2013-06-17 07:33:00,46.0,-99.9,30.20,North,355,0.0,2.0,-999,-99.99,,,-99.99,,2013-06-17 15:33:00,
2013-06-17 07:43:00,47.0,-99.9,30.20,North,-999,-999.0,-999.0,-999,-99.99,,,-99.99,,2013-06-17 15:43:00,
2013-06-17 07:53:00,49.0,-99.9,30.20,East,89,2.0,3.0,-999,-99.99,,,-99.99,,2013-06-17 15:53:00,
2013-06-17 08:02:00,50.0,-99.9,30.20,East,98,1.0,2.0,-999,-99.99,,,-99.99,,2013-06-17 16:02:00,
2013-06-17 08:12:00,50.0,-99.9,30.20,NE,53,1.0,2.0,-999,-99.99,,,-99.99,,2013-06-17 16:12:00,
2013-06-17 08:22:00,50.0,-99.9,30.20,NE,53,1.0,2.0,-999,-99.99,,,-99.99,,2013-06-17 16:22:00,
2013-06-17 08:33:00,54.0,-99.9,30.20,East,90,2.0,3.0,-999,-99.99,,,-99.99,,2013-06-17 16:33:00,
2013-06-17 08:43:00,55.0,-99.9,30.19,East,80,2.0,3.0,-999,-99.99,,,-99.99,,2013-06-17 16:43:00,
2013-06-17 08:54:00,56.0,-99.9,30.19,East,91,2.0,3.0,-999,-99.99,,,-99.99,,2013-06-17 16:54:00,
2013-06-17 09:02:00,56.0,-99.9,30.19,ESE,121,2.0,3.0,-999,-99.99,,,-99.99,,2013-06-17 17:02:00,
2013-06-17 09:12:00,55.0,-99.9,30.19,SE,134,2.0,2.0,-999,-99.99,,,-99.99,,2013-06-17 17:12:00,
2013-06-17 09:22:00,56.0,-99.9,30.19,NNW,334,0.0,1.0,-999,-99.99,,,-99.99,,2013-06-17 17:22:00,
2013-06-17 09:33:00,48.0,-99.9,30.18,NW,307,2.0,3.0,-999,-99.99,,,-99.99,,2013-06-17 17:33:00,
2013-06-17 09:43:00,54.0,-99.9,30.18,NNW,334,5.0,5.0,-999,-99.99,,,-99.99,,2013-06-17 17:43:00,
2013-06-17 09:52:00,62.0,-99.9,30.18,North,353,3.0,4.0,-999,-99.99,,,-99.99,,2013-06-17 17:52:00,
2013-06-17 10:02:00,53.0,-99.9,30.18,WNW,285,2.0,3.0,-999,-99.99,,,-99.99,,2013-06-17 18:02:00,
2013-06-17 10:12:00,56.0,-99.9,30.17,NNE,19,3.0,4.0,-999,-99.99,,,-99.99,,2013-06-17 18:12:00,
2013-06-17 10:23:00,56.0,-99.9,30.17,NNE,19,3.0,4.0,-999,-99.99,,,-99.99,,2013-06-17 18:23:00,
2013-06-17 10:33:00,64.0,-99.9,30.17,ESE,119,2.0,4.0,-999,-99.99,,,-99.99,,2013-06-17 18:33:00,
2013-06-17 10:43:00,67.0,-99.9,30.17,ENE,71,2.0,2.0,-999,-99.99,,,-99.99,,2013-06-17 18:43:00,
2013-06-17 10:53:00,66.0,-99.9,30.17,NE,36,2.0,4.0,-999,-99.99,,,-99.99,,2013-06-17 18:53:00,
2013-06-17 11:02:00,71.0,-99.9,30.17,NE,56,3.0,4.0,-999,-99.99,,,-99.99,,2013-06-17 19:02:00,
2013-06-17 11:12:00,67.0,-99.9,30.17,SSE,147,3.0,4.0,-999,-99.99,,,-99.99,,2013-06-17 19:12:00,
2013-06-17 11:22:00,69.0,-99.9,30.16,ESE,116,3.0,4.0,-999,-99.99,,,-99.99,,2013-06-17 19:22:00,
2013-06-17 11:33:00,67.0,-99.9,30.16,SSE,161,3.0,4.0,-999,-99.99,,,-99.99,,2013-06-17 19:33:00,
2013-06-17 11:44:00,65.0,-99.9,30.16,SSE,167,2.0,4.0,-999,-99.99,,,-99.99,,2013-06-17 19:44:00,
2013-06-17 11:54:00,65.0,-99.9,30.16,SSE,168,2.0,4.0,-999,-99.99,,,-99.99,,2013-06-17 19:54:00,
2013-06-17 12:02:00,66.0,-99.9,30.16,SE,140,3.0,4.0,-999,-99.99,,,-99.99,,2013-06-17 20:02:00,
2013-06-17 12:11:00,67.0,-99.9,30.16,SE,136,2.0,4.0,-999,-99.99,,,-99.99,,2013-06-17 20:11:00,
2013-06-17 12:22:00,67.0,-99.9,30.16,SE,136,2.0,4.0,-999,-99.99,,,-99.99,,2013-06-17 20:22:00,
2013-06-17 12:34:00,66.0,-99.9,30.16,SE,125,4.0,5.0,-999,-99.99,,,-99.99,,2013-06-17 20:34:00,
2013-06-17 12:52:00,64.0,-99.9,30.16,SE,126,3.0,5.0,-999,-99.99,,,-99.99,,2013-06-17 20:52:00,
2013-06-17 13:02:00,64.0,-99.9,30.15,ESE,120,4.0,7.0,-999,-99.99,,,-99.99,,2013-06-17 21:02:00,
2013-06-17 13:12:00,65.0,-99.9,30.15,SE,126,5.0,7.0,-999,-99.99,,,-99.99,,2013-06-17 21:12:00,
2013-06-17 13:22:00,65.0,-99.9,30.15,SE,126,5.0,7.0,-999,-99.99,,,-99.99,,2013-06-17 21:22:00,
2013-06-17 13:33:00,71.0,-99.9,30.14,ESE,114,7.0,9.0,-999,-99.99,,,-99.99,,2013-06-17 21:33:00,
2013-06-17 13:43:00,73.0,-99.9,30.14,East,91,13.0,16.0,-999,-99.99,,,-99.99,,2013-06-17 21:43:00,
2013-06-17 13:52:00,73.0,-99.9,30.14,East,91,13.0,16.0,-999,-99.99,,,-99.99,,2013-06-17 21:52:00,
2013-06-17 14:01:00,74.0,-99.9,30.14,ENE,73,12.0,15.0,-999,-99.99,,,-99.99,,2013-06-17 22:01:00,
2013-06-17 14:12:00,72.0,-99.9,30.13,East,86,14.0,20.0,-999,-99.99,,,-99.99,,2013-06-17 22:12:00,
2013-06-17 14:22:00,74.0,-99.9,30.13,East,84,15.0,20.0,-999,-99.99,,,-99.99,,2013-06-17 22:22:00,
2013-06-17 14:34:00,72.0,-99.9,30.12,East,99,15.0,22.0,-999,-99.99,,,-99.99,,2013-06-17 22:34:00,
2013-06-17 14:54:00,67.0,-99.9,30.12,ESE,113,13.0,19.0,-999,-99.99,,,-99.99,,2013-06-17 22:54:00,
2013-06-17 15:42:00,67.0,-99.9,30.10,ESE,110,16.0,19.0,-999,-99.99,,,-99.99,,2013-06-17 23:42:00,
2013-06-17 15:43:00,66.0,-99.9,30.11,ESE,113,13.0,17.0,-999,-99.99,,,-99.99,,2013-06-17 23:43:00,
2013-06-17 15:53:00,66.0,-99.9,30.11,ESE,113,16.0,19.0,-999,-99.99,,,-99.99,,2013-06-17 23:53:00,
2013-06-17 16:02:00,68.0,-99.9,30.10,ESE,103,16.0,19.0,-999,-99.99,,,-99.99,,2013-06-18 00:02:00,
2013-06-17 16:12:00,68.0,-99.9,30.10,ESE,103,16.0,19.0,-999,-99.99,,,-99.99,,2013-06-18 00:12:00,
2013-06-17 16:22:00,67.0,-99.9,30.10,ESE,110,16.0,19.0,-999,-99.99,,,-99.99,,2013-06-18 00:22:00,
2013-06-17 16:33:00,67.0,-99.9,30.10,ESE,110,16.0,19.0,-999,-99.99,,,-99.99,,2013-06-18 00:33:00,
2013-06-17 17:12:00,55.0,-99.9,30.11,SSW,195,9.0,13.0,-999,-99.99,,,-99.99,,2013-06-18 01:12:00,
2013-06-17 17:23:00,51.0,-99.9,30.11,WSW,254,3.0,5.0,-999,-99.99,,,-99.99,,2013-06-18 01:23:00,
2013-06-17 17:54:00,53.0,-99.9,30.12,NW,312,4.0,7.0,-999,-99.99,,,-99.99,,2013-06-18 01:54:00,
2013-06-17 18:12:00,54.0,-99.9,30.12,WNW,302,6.0,7.0,-999,-99.99,,,-99.99,,2013-06-18 02:12:00,
2013-06-17 18:23:00,55.0,-99.9,30.13,NNW,329,6.0,6.0,-999,-99.99,,,-99.99,,2013-06-18 02:23:00,
2013-06-17 19:02:00,58.0,-99.9,30.12,WNW,302,4.0,7.0,-999,-99.99,,,-99.99,,2013-06-18 03:02:00,
2013-06-17 19:12:00,58.0,-99.9,30.12,WNW,302,4.0,7.0,-999,-99.99,,,-99.99,,2013-06-18 03:12:00,
2013-06-17 19:23:00,61.0,-99.9,30.12,NNW,339,4.0,5.0,-999,-99.99,,,-99.99,,2013-06-18 03:23:00,
2013-06-17 19:34:00,61.0,-99.9,30.12,North,349,2.0,4.0,-999,-99.99,,,-99.99,,2013-06-18 03:34:00,
2013-06-17 19:43:00,63.0,-99.9,30.12,North,357,2.0,4.0,-999,-99.99,,,-99.99,,2013-06-18 03:43:00,
2013-06-17 19:53:00,64.0,-99.9,30.12,West,279,3.0,4.0,-999,-99.99,,,-99.99,,2013-06-18 03:53:00,
2013-06-17 20:02:00,65.0,-99.9,30.12,SW,227,2.0,2.0,-999,-99.99,,,-99.99,,2013-06-18 04:02:00,
2013-06-17 20:12:00,63.0,-99.9,30.11,WNW,300,2.0,3.0,-999,-99.99,,,-99.99,,2013-06-18 04:12:00,
2013-06-17 20:23:00,63.0,-99.9,30.11,WNW,300,2.0,3.0,-999,-99.99,,,-99.99,,2013-06-18 04:23:00,
2013-06-17 20:34:00,60.0,-99.9,30.11,West,281,3.0,4.0,-999,-99.99,,,-99.99,,2013-06-18 04:34:00,
2013-06-17 20:43:00,58.0,-99.9,30.11,West,270,4.0,5.0,-999,-99.99,,,-99.99,,2013-06-18 04:43:00,
2013-06-17 20:54:00,58.0,-99.9,30.11,West,270,4.0,5.0,-999,-99.99,,,-99.99,,2013-06-18 04:54:00,
2013-06-17 21:12:00,56.0,-99.9,30.11,West,280,5.0,6.0,-999,-99.99,,,-99.99,,2013-06-18 05:12:00,
2013-06-17 21:22:00,56.0,-99.9,30.11,WNW,296,5.0,6.0,-999,-99.99,,,-99.99,,2013-06-18 05:22:00,
2013-06-17 21:34:00,56.0,-99.9,30.10,West,281,6.0,6.0,-999,-99.99,,,-99.99,,2013-06-18 05:34:00,
2013-06-17 21:43:00,57.0,-99.9,30.10,WNW,294,5.0,6.0,-999,-99.99,,,-99.99,,2013-06-18 05:43:00,
2013-06-17 21:53:00,55.0,-99.9,30.10,WNW,299,6.0,6.0,-999,-99.99,,,-99.99,,2013-06-18 05:53:00,
2013-06-17 22:02:00,55.0,-99.9,30.10,WNW,289,7.0,7.0,-999,-99.99,,,-99.99,,2013-06-18 06:02:00,
2013-06-17 22:12:00,55.0,-99.9,30.10,WNW,284,8.0,8.0,-999,-99.99,,,-99.99,,2013-06-18 06:12:00,
2013-06-17 22:24:00,55.0,-99.9,30.10,WNW,284,8.0,8.0,-999,-99.99,,,-99.99,,2013-06-18 06:24:00,
2013-06-17 22:33:00,55.0,-99.9,30.10,WNW,284,8.0,8.0,-999,-99.99,,,-99.99,,2013-06-18 06:33:00,
2013-06-17 23:02:00,48.0,-99.9,30.10,WNW,300,5.0,6.0,-999,-99.99,,,-99.99,,2013-06-18 07:02:00,
2013-06-17 23:12:00,49.0,-99.9,30.10,WNW,301,7.0,8.0,-999,-99.99,,,-99.99,,2013-06-18 07:12:00,
2013-06-17 23:22:00,48.0,-99.9,30.10,NW,305,6.0,9.0,-999,-99.99,,,-99.99,,2013-06-18 07:22:00,